Location: Brede
(50.9167°N, 0.6000°E)
Time: 02:45:42
(UTC+00:00)

Cosmos 1707 - Pass Details

Date: 08 August 2020
Orbit: 515 x 531 km, 82.5° (Epoch: 25 September)

Event Time Altitude Azimuth Distance (km) Brightness Sun altitude
Rises 00:57:08 0° 347° (NNW) 2,691 7.4 -22.0°
Reaches altitude 10° 00:59:18 10° 345° (NNW) 1,795 6.3 -21.9°
Enters shadow 01:03:11 68° 266° (W) 579 2.7 -21.8°
